Location: Altenst�hlen
(53.5567°N, 8.9425°E)
Time: 21:39:46
(UTC+00:00)

Cosmos 2084 Rocket - Pass Details

Date: 23 October 2019
Orbit: 572 x 609 km, 62.8° (Epoch: 18 November)

Event Time Altitude Azimuth Distance (km) Brightness Sun altitude
Rises 17:03:38 0° 310° (NW) 2,877 7.7 -8.5°
Reaches altitude 10° 17:05:55 10° 309° (NW) 1,968 6.8 -8.8°
Maximum altitude 17:10:22 75° 224° (SW) 631 3.7 -9.5°
Drops below altitude 10° 17:14:45 10° 140° (SE) 1,941 5.8 -10.1°
Sets 17:16:59 0° 138° (SE) 2,834 6.6 -10.5°
Enters shadow 17:17:02 - 138° (SE) 2,852 6.6 -10.5°
